FW7611 Weather Reports


Display with metric or nautical units.
time (UTC)temp
F
wind
direction
speed
MPH
gust
MPH
rain 1hr
in
rain 24hr
in
rain mn
in
humidity
%
barometer
mb
20260505184535 76 229 4.0 11.0 0.00 0.00 0.00 34 1016.2
20260505183040 78 299 3.0 10.0 0.00 0.00 0.00 35 1016.7
20260505181536 78 313 3.0 12.0 0.00 0.00 0.00 37 1016.7
20260505180045 76 269 3.0 10.0 0.00 0.00 0.00 36 1016.7
20260505174544 76 193 3.0 13.0 0.00 0.00 0.00 36 1016.8
20260505173035 76 239 3.0 10.0 0.00 0.00 0.00 38 1016.8
20260505171544 76 311 3.0 7.0 0.00 0.00 0.00 41 1017.1
20260505170040 75 242 1.0 7.0 0.00 0.00 0.00 39 1017.2
20260505164542 75 63 1.0 11.0 0.00 0.00 0.00 41 1017.4
20260505163035 75 235 1.0 4.0 0.00 0.00 0.00 39 1017.4
20260505161534 74 238 1.0 5.0 0.00 0.00 0.00 42 1017.6
20260505153040 72 284 1.0 8.0 0.00 0.00 0.00 52 1017.9
20260505151536 72 198 2.0 10.0 0.00 0.00 0.00 52 1018.0
20260505124539 59 212 1.0 4.0 0.00 0.00 0.00 72 1018.0
20260505123037 57 228 1.0 4.0 0.00 0.00 0.00 74 1017.6
20260505121535 55 217 1.0 5.0 0.00 0.00 0.00 76 1017.5
20260505120034 54 244 0.0 3.0 0.00 0.00 0.00 77 1017.4
20260505114535 53 223 0.0 2.0 0.00 0.00 0.00 77 1017.4
20260505113048 52 0 0.0 2.0 0.00 0.00 0.00 78 1017.3
20260505111532 52 0 0.0 0.0 0.00 0.00 0.00 78 1017.2
20260505101554 50 0 0.0 0.0 0.00 0.00 0.00 79 1017.1
20260505100058 51 0 0.0 0.0 0.00 0.00 0.00 77 1016.9
20260505094540 50 0 0.0 0.0 0.00 0.00 0.00 76 1016.8
20260505093104 51 0 0.0 0.0 0.00 0.00 0.00 74 1016.8
20260505091534 53 0 0.0 0.0 0.00 0.00 0.00 70 1016.7
20260505090041 53 0 0.0 2.0 0.00 0.00 0.00 69 1016.5
20260505084542 53 0 0.0 2.0 0.00 0.00 0.00 67 1016.5
20260505083041 53 0 0.0 2.0 0.00 0.00 0.00 67 1016.3
20260505081548 54 0 0.0 2.0 0.00 0.00 0.00 65 1016.1
20260505080048 54 0 0.0 2.0 0.00 0.00 0.00 65 1016.0
20260505074536 55 0 0.0 0.0 0.00 0.00 0.00 63 1016.0
20260505073041 55 0 0.0 0.0 0.00 0.00 0.00 64 1016.1
20260505071550 54 0 0.0 0.0 0.00 0.00 0.00 65 1015.9
20260505070041 54 0 0.0 0.0 0.00 0.00 0.00 64 1015.8
20260505064539 55 0 0.0 0.0 0.00 0.00 0.00 62 1016.0
20260505063045 57 0 0.0 0.0 0.00 0.00 0.00 60 1015.8
20260505061545 60 0 0.0 2.0 0.00 0.00 0.00 53 1015.9
20260505060044 60 227 0.0 2.0 0.00 0.00 0.00 52 1015.9
20260505054547 60 234 0.0 2.0 0.00 0.00 0.00 52 1015.8
20260505053045 60 194 0.0 2.0 0.00 0.00 0.00 53 1015.7
20260505051543 60 219 0.0 3.0 0.00 0.00 0.00 51 1015.9
20260505041540 61 0 0.0 0.0 0.00 0.00 0.00 49 1015.9
20260505040040 61 0 0.0 0.0 0.00 0.00 0.00 49 1015.8
20260505034542 61 260 0.0 2.0 0.00 0.00 0.00 49 1015.9
20260505033044 61 216 0.0 2.0 0.00 0.00 0.00 50 1015.9
20260505031548 61 198 0.0 2.0 0.00 0.00 0.00 52 1016.1
20260505030038 59 0 0.0 2.0 0.00 0.00 0.00 58 1016.1
20260505024537 60 0 0.0 2.0 0.00 0.00 0.00 55 1016.1
20260505023042 60 0 0.0 2.0 0.00 0.00 0.00 54 1016.2
20260505021537 61 0 0.0 2.0 0.00 0.00 0.00 57 1016.0
20260505020047 61 207 0.0 1.0 0.00 0.00 0.00 58 1015.8
20260505014547 61 0 0.0 2.0 0.00 0.00 0.00 57 1015.9
20260505013040 62 0 0.0 2.0 0.00 0.00 0.00 55 1015.7
20260505011543 63 0 0.0 0.0 0.00 0.00 0.00 51 1015.6
20260505010101 64 0 0.0 0.0 0.00 0.00 0.00 50 1015.5
20260505004536 65 0 0.0 2.0 0.00 0.00 0.00 49 1015.2
20260505003045 66 0 0.0 2.0 0.00 0.00 0.00 47 1015.1
20260505001540 67 202 0.0 2.0 0.00 0.00 0.00 46 1015.0
20260505000044 69 0 0.0 0.0 0.00 0.00 0.00 41 1015.0
20260504234536 71 210 0.0 2.0 0.00 0.00 0.00 38 1014.7
20260504233043 72 220 0.0 3.0 0.00 0.00 0.00 36 1014.6
20260504231545 74 178 1.0 5.0 0.00 0.00 0.00 35 1014.6
20260504230045 74 210 0.0 4.0 0.00 0.00 0.00 35 1014.5
20260504224537 74 336 1.0 6.0 0.00 0.00 0.00 34 1014.6
20260504223057 74 246 1.0 3.0 0.00 0.00 0.00 34 1014.6
20260504221555 75 159 2.0 5.0 0.00 0.00 0.00 35 1014.5
20260504220040 75 159 2.0 7.0 0.00 0.00 0.00 35 1014.5
20260504214540 76 323 1.0 7.0 0.00 0.00 0.00 35 1014.6
20260504213047 76 174 2.0 4.0 0.00 0.00 0.00 35 1014.5
20260504211547 76 264 3.0 8.0 0.00 0.00 0.00 35 1014.6
20260504210041 76 257 1.0 8.0 0.00 0.00 0.00 36 1014.6
20260504204540 76 244 1.0 9.0 0.00 0.00 0.00 36 1014.7
20260504203046 76 199 1.0 8.0 0.00 0.00 0.00 36 1014.7
20260504201535 77 250 1.0 7.0 0.00 0.00 0.00 37 1015.0
20260504200042 76 235 1.0 8.0 0.00 0.00 0.00 36 1015.0
20260504194546 75 219 1.0 8.0 0.00 0.00 0.00 36 1015.3
20260504193037 76 131 1.0 5.0 0.00 0.00 0.00 38 1015.6
20260504191540 76 144 2.0 10.0 0.00 0.00 0.00 37 1015.8
20260504190034 75 253 1.0 4.0 0.00 0.00 0.00 37 1015.9